Location: ??
(34.7707°N, 135.6540°E)
Time: 07:20:03
(UTC+00:00)

Okean 1 Rocket - Pass Details

Date: 09 April 2020
Orbit: 608 x 633 km, 82.5° (Epoch: 24 May)

Event Time Altitude Azimuth Distance (km) Brightness Sun altitude
Rises 19:30:02 0° 348° (NNW) 2,887 6.6 -13.2°
Reaches altitude 10° 19:32:17 10° 344° (NNW) 1,981 5.7 -12.7°
Maximum altitude 19:36:35 55° 266° (W) 742 3.1 -11.9°
Drops below altitude 10° 19:40:52 10° 189° (S) 1,984 5.4 -11.1°
Sets 19:43:08 0° 185° (S) 2,890 6.3 -10.6°
